Last 7 Days

Top of 22

Hourly Data | America/Los_Angeles
as of 12/1/22 11:10 PM PST
Date & Time Temp (°F) WindChill (°F) RH (%) Dew Pt (°F) Wet Bulb (°F) Wind Dir (°) Wind Spd (mph) Wind Gust (mph) Wind Gst Dir (°) Daily Min Temp (°F) Daily Max Temp (°F) Daily Max Wind (mph)
12/1/22 - 2300 17.1 -2.4 93 15.4 16.6 SW | 218 29.4 70.4 S | 175 15.8 21.7 73.6
12/1/22 - 2200 18.9 -1.4 94 17.4 18.4 SSW | 212 35.3 72.6 SW | 216 15.8 21.7 73.6
12/1/22 - 2100 19.0 -0.3 94 17.5 18.5 SSW | 205 30.7 73.6 SW | 216 15.8 21.7 73.6
12/1/22 - 2000 18.4 -1.2 94 16.9 17.9 SSW | 205 31.3 63.5 WSW | 258 15.8 21.7 70.5
12/1/22 - 1900 18.2 -2.1 94 16.6 17.7 SW | 218 33.9 63.0 SSW | 196 15.8 21.7 70.5
12/1/22 - 1800 18.1 -2.3 93 16.5 17.6 SW | 216 34.0 59.4 SSW | 205 15.8 21.7 70.5
12/1/22 - 1700 18.4 -1.0 94 16.9 18.0 SW | 214 30.7 58.2 SW | 214 15.8 21.7 70.5
12/1/22 - 1600 18.5 -0.6 94 16.9 18.0 SW | 214 29.3 58.8 SW | 214 15.8 21.7 70.5
12/1/22 - 1500 18.6 -0.6 94 17.1 18.2 SSW | 206 30.3 62.3 SW | 230 15.8 21.7 70.5
12/1/22 - 1400 18.6 -1.5 94 17.1 18.2 SSW | 209 33.8 63.0 SSW | 202 15.8 21.7 70.5
12/1/22 - 1300 18.9 -0.3 94 17.4 18.4 SSW | 209 30.4 59.8 SW | 233 15.8 21.7 70.5
12/1/22 - 1200 19.1 4.6 94 17.5 18.6 S | 189 16.0 43.9 SSW | 208 15.8 21.7 70.5
12/1/22 - 1100 18.3 -1.1 93 16.7 17.8 SSW | 204 30.3 55.0 SSW | 210 15.8 21.7 70.5
12/1/22 - 1000 18.0 -3.8 93 16.3 17.5 SW | 215 40.4 61.0 SSW | 212 15.8 21.7 70.5
12/1/22 - 0900 17.9 -2.7 93 16.2 17.4 SSW | 203 34.7 61.9 SW | 221 15.8 21.7 70.5
12/1/22 - 0800 17.2 -6.0 92 15.4 16.7 SW | 222 46.0 63.0 SSW | 212 15.8 21.7 70.5
12/1/22 - 0700 16.9 -6.3 92 15.0 16.4 SW | 219 45.4 65.8 SW | 216 15.8 21.7 70.5
12/1/22 - 0600 17.2 -5.7 85 13.4 16.2 SW | 214 44.7 60.2 SW | 216 15.8 21.7 70.5
12/1/22 - 0500 19.3 -2.4 68 10.4 17.0 SW | 220 42.7 66.2 SW | 214 18.6 21.7 70.5
12/1/22 - 0400 19.7 -2.4 64 9.6 17.2 SW | 221 45.9 60.0 SSW | 203 19.3 21.7 70.5
12/1/22 - 0300 19.9 -2.9 66 10.3 17.5 SSW | 207 50.4 62.4 SSW | 194 19.3 21.7 70.5
12/1/22 - 0200 20.2 -3.2 64 9.8 17.6 SSW | 210 55.0 70.5 SW | 215 19.3 21.7 70.5
12/1/22 - 0100 20.9 -2.5 63 10.4 18.2 SSW | 210 57.4 68.9 SW | 214 20.5 21.7 68.9
12/1/22 - 0000 20.6 -2.7 67 11.5 18.2 SSW | 211 56.2 69.0 SSW | 202 18.4 27.8 69.0
11/30/22 - 2300 19.6 -3.6 76 13.2 17.8 SSW | 213 51.9 66.3 SW | 228 18.4 27.8 66.3
11/30/22 - 2200 19.4 -3.1 76 13.2 17.7 SW | 214 47.3 59.7 SW | 218 18.4 27.8 59.7
11/30/22 - 2100 18.7 -3.8 81 13.8 17.4 SSW | 209 45.9 58.6 SSW | 213 18.4 27.8 58.6
11/30/22 - 2000 19.1 -1.5 77 13.2 17.5 SSW | 205 36.8 54.0 SSW | 213 18.8 27.8 54.0
11/30/22 - 1900 19.7 0.1 72 12.3 17.7 SSW | 210 33.1 54.0 SW | 216 19.4 27.8 54.0
11/30/22 - 1800 20.8 1.3 68 11.8 18.4 SW | 220 34.3 50.7 SE | 128 19.7 27.8 53.4
11/30/22 - 1700 22.6 4.0 56 9.1 19.1 SW | 222 33.5 49.0 SSW | 211 21.6 27.8 53.4
11/30/22 - 1600 24.4 7.1 53 9.7 20.5 SW | 227 30.7 44.9 SSW | 213 21.9 27.8 53.4
11/30/22 - 1500 24.5 6.3 51 9.0 20.5 SW | 229 34.8 53.4 SW | 230 21.9 27.8 53.4
11/30/22 - 1400 25.7 7.5 39 4.2 20.6 SW | 228 37.7 50.0 SW | 225 21.9 27.8 50.0
11/30/22 - 1300 26.6 9.0 33 1.1 20.7 SW | 222 36.2 49.2 SW | 226 21.9 27.8 49.2
11/30/22 - 1200 26.7 8.9 28 -1.9 20.4 SW | 221 37.2 47.5 SW | 222 21.9 27.8 48.0
11/30/22 - 1100 26.8 9.0 24 -5.3 20.1 SW | 219 37.5 47.5 SSW | 206 21.9 27.8 48.0
11/30/22 - 1000 25.7 7.3 23 -7.4 19.2 SSW | 210 38.5 48.0 SW | 220 21.9 27.8 48.0
11/30/22 - 0900 24.2 4.8 28 -4.5 18.4 SSW | 206 40.8 47.1 SW | 215 21.9 27.8 47.5
11/30/22 - 0800 23.3 3.7 33 -1.6 18.0 SSW | 207 39.9 47.3 SSW | 211 21.9 27.8 47.5
11/30/22 - 0700 22.4 3.4 36 -0.4 17.6 SSW | 202 35.2 41.1 SSW | 203 21.9 27.8 47.5
11/30/22 - 0600 23.3 5.1 32 -2.1 18.0 SSW | 210 33.4 40.4 SSW | 212 22.8 27.8 47.5
11/30/22 - 0500 24.0 6.7 32 -1.5 18.5 SSW | 207 30.0 36.0 SSW | 199 23.3 27.8 47.5
11/30/22 - 0400 24.5 6.6 31 -2.2 18.8 SSW | 204 33.5 38.9 SSW | 213 24.0 27.8 47.5
11/30/22 - 0300 26.5 10.1 32 0.8 20.6 SSW | 203 30.3 36.9 SW | 215 25.4 27.8 47.5
11/30/22 - 0200 27.5 10.7 31 1.2 21.4 SSW | 201 34.0 44.5 SSW | 201 27.1 27.8 47.5
11/30/22 - 0100 27.3 9.0 31 0.8 21.1 SSW | 208 41.6 47.5 SSW | 209 27.1 27.6 47.5
11/30/22 - 0000 27.8 10.7 29 -0.4 21.3 SSW | 213 35.6 42.1 SW | 219 20.0 34.9 49.3
11/29/22 - 2300 28.5 14.3 29 -0.1 21.9 SSW | 210 24.0 35.5 SW | 219 20.0 34.9 49.3
11/29/22 - 2200 29.7 17.9 27 0.1 22.7 SSW | 195 16.9 23.9 SSW | 205 20.0 34.9 49.3
11/29/22 - 2100 29.0 18.3 30 1.1 22.3 SW | 218 13.4 22.6 SW | 227 20.0 34.9 49.3
11/29/22 - 2000 28.5 16.8 31 1.5 22.1 SW | 227 16.0 25.0 SW | 221 20.0 34.9 49.3
11/29/22 - 1900 28.7 18.7 31 1.7 22.2 SW | 234 11.9 24.7 WSW | 238 20.0 34.9 49.3
11/29/22 - 1800 30.0 14.7 30 2.1 23.2 SW | 216 30.4 37.7 SW | 221 20.0 34.9 49.3
11/29/22 - 1700 31.1 15.4 30 2.9 24.0 SSW | 212 34.6 41.8 SW | 223 20.0 34.9 49.3
11/29/22 - 1600 32.2 17.2 26 0.6 24.4 SW | 216 33.3 43.8 SW | 216 20.0 34.9 49.3
11/29/22 - 1500 34.1 29.0 22 -0.4 25.6 WSW | 245 5.8 24.2 SW | 228 20.0 34.9 49.3
11/29/22 - 1400 33.9 - 21 -1.8 25.3 S | 185 2.6 7.8 SE | 145 20.0 34.7 49.3
11/29/22 - 1300 33.1 27.7 20 -3.7 24.5 SE | 126 5.7 10.2 ESE | 105 20.0 33.8 49.3
11/29/22 - 1200 31.1 23.7 19 -6.7 22.9 SE | 125 8.0 15.0 ESE | 120 20.0 32.6 49.3
11/29/22 - 1100 30.2 20.7 20 -5.7 22.4 SE | 132 11.5 15.6 SE | 131 20.0 31.0 49.3
11/29/22 - 1000 28.1 17.1 23 -5.0 21.0 SE | 130 13.7 18.3 SE | 130 20.0 29.3 49.3
11/29/22 - 0900 25.7 13.5 25 -5.4 19.3 SE | 129 15.2 20.9 SE | 126 20.0 26.9 49.3
11/29/22 - 0800 22.7 13.4 26 -6.9 17.0 SE | 130 8.2 15.5 ESE | 121 20.0 26.8 49.3
11/29/22 - 0700 23.4 - 23 -9.3 17.3 SW | 228 1.0 4.2 WNW | 291 20.0 26.8 49.3
11/29/22 - 0600 24.4 14.6 25 -6.7 18.2 WNW | 301 9.5 17.9 WNW | 301 20.0 26.8 49.3
11/29/22 - 0500 24.2 15.0 25 -7.0 18.1 SW | 226 8.4 29.1 NW | 304 20.0 26.8 49.3
11/29/22 - 0400 25.6 10.6 23 -7.5 19.1 W | 271 23.3 44.5 WNW | 302 20.0 26.8 49.3
11/29/22 - 0300 26.3 10.6 22 -7.7 19.5 W | 270 26.8 47.3 WSW | 255 20.0 26.8 49.3
11/29/22 - 0200 25.0 8.3 20 -10.2 18.4 W | 269 29.5 49.3 W | 270 20.0 26.7 49.3
11/29/22 - 0100 21.8 3.5 19 -14.3 15.8 W | 265 31.3 47.0 WNW | 284 20.0 24.5 47.0
11/29/22 - 0000 20.2 1.3 21 -13.8 14.6 W | 266 31.2 45.9 WNW | 282 17.2 27.6 87.7
11/28/22 - 2300 21.0 2.8 25 -9.7 15.5 W | 270 29.3 40.9 WSW | 248 17.2 27.6 87.7
11/28/22 - 2200 20.2 1.9 35 -3.8 15.6 W | 266 29.0 41.0 NW | 306 17.2 27.6 87.7
11/28/22 - 2100 18.0 -2.8 51 2.9 14.8 WSW | 255 35.4 45.5 WSW | 251 17.2 27.6 87.7
11/28/22 - 2000 17.6 -3.8 65 7.9 15.4 WSW | 245 38.1 49.2 WSW | 243 17.2 27.6 87.7
11/28/22 - 1900 17.8 -4.1 78 12.1 16.4 SW | 235 41.0 53.3 WSW | 249 17.4 27.6 87.7
11/28/22 - 1800 19.6 -2.4 74 12.6 17.8 WSW | 243 44.7 64.0 SW | 231 18.6 27.6 87.7
11/28/22 - 1700 19.2 -3.7 88 16.3 18.4 SW | 232 49.6 67.6 SW | 234 18.7 27.6 87.7
11/28/22 - 1600 20.0 -2.7 89 17.4 19.2 SW | 221 50.0 66.1 SSW | 208 19.4 27.6 87.7
11/28/22 - 1500 20.5 -3.6 87 17.1 19.5 SW | 217 60.8 75.5 SW | 224 20.4 27.6 87.7
11/28/22 - 1400 21.3 -3.5 82 16.7 19.9 SW | 218 69.0 87.7 SW | 225 20.4 27.6 87.7
11/28/22 - 1300 21.7 -2.6 83 17.4 20.4 SW | 216 66.8 82.4 SW | 220 20.4 27.6 82.4
11/28/22 - 1200 21.5 -1.9 92 19.7 20.9 SW | 214 59.6 75.3 SSW | 212 20.4 27.6 75.3
11/28/22 - 1100 20.9 -2.8 90 18.5 20.1 SW | 214 59.0 68.1 SW | 214 20.4 27.6 69.6
11/28/22 - 1000 21.4 -2.0 83 16.9 20.0 SSW | 212 58.3 68.7 SSW | 213 21.1 27.6 69.6
11/28/22 - 0900 22.0 -1.2 72 14.3 19.8 SW | 216 58.8 69.3 SSW | 208 21.6 27.6 69.6
11/28/22 - 0800 22.2 -0.4 60 10.5 19.2 SW | 219 55.9 68.9 SW | 216 22.0 27.6 69.6
11/28/22 - 0700 22.5 -0.3 47 5.5 18.5 SSW | 211 58.0 69.6 SW | 215 22.1 27.6 69.6
11/28/22 - 0600 23.6 1.5 53 8.9 19.9 SSW | 208 56.2 66.6 SSW | 211 23.2 27.6 67.1
11/28/22 - 0500 24.0 2.5 41 3.5 19.3 SSW | 211 53.8 67.1 SSW | 212 23.8 27.6 67.1
11/28/22 - 0400 24.6 2.8 26 -5.7 18.5 SSW | 213 57.4 63.8 SW | 218 24.2 27.6 63.8
11/28/22 - 0300 25.4 4.3 17 -13.2 18.4 SSW | 212 54.7 60.3 SW | 215 25.0 27.6 61.6
11/28/22 - 0200 26.2 5.3 14 -17.3 18.7 SSW | 212 55.4 60.1 SW | 214 25.9 27.6 61.6
11/28/22 - 0100 26.9 6.4 13 -17.1 19.2 SSW | 205 55.0 61.6 SW | 216 26.3 27.6 61.6
11/28/22 - 0000 27.6 7.7 13 -16.8 19.8 SSW | 207 52.6 60.2 SSW | 205 27.3 37.0 60.2
11/27/22 - 2300 28.4 9.4 14 -15.2 20.4 SSW | 213 48.6 54.4 SW | 215 27.9 37.0 57.6
11/27/22 - 2200 28.6 9.6 12 -16.9 20.5 SW | 215 49.8 57.6 SW | 221 28.4 37.0 57.6
11/27/22 - 2100 28.6 9.7 11 -20.2 20.3 SW | 217 49.2 54.8 SW | 220 28.4 37.0 54.8
11/27/22 - 2000 28.8 10.4 12 -18.4 20.4 SW | 222 45.8 54.1 SW | 219 28.5 37.0 54.1
11/27/22 - 1900 29.2 10.8 14 -13.8 21.0 SW | 219 47.0 53.3 SSW | 204 28.8 37.0 53.8
11/27/22 - 1800 29.6 11.2 24 -3.1 22.3 SW | 217 48.4 53.8 SW | 220 29.0 37.0 53.8
11/27/22 - 1700 30.9 13.6 36 6.9 24.5 SW | 220 45.0 53.5 SW | 221 29.0 37.0 53.5
11/27/22 - 1600 33.1 16.7 32 6.5 25.9 SW | 215 44.5 51.6 SSW | 209 29.0 37.0 51.6
11/27/22 - 1500 34.7 19.7 28 5.0 26.7 SW | 216 38.7 47.2 SW | 218 29.0 37.0 49.5
11/27/22 - 1400 34.9 20.0 22 0.3 26.1 SW | 226 38.9 49.5 SW | 224 29.0 37.0 49.5
11/27/22 - 1300 35.6 22.0 19 -2.9 26.2 SW | 231 32.8 42.0 SW | 231 29.0 37.0 42.0
11/27/22 - 1200 36.2 23.4 16 -5.5 26.3 SW | 228 28.8 39.0 SW | 230 29.0 37.0 39.0
11/27/22 - 1100 36.3 24.2 16 -6.2 26.4 SW | 219 26.0 34.1 SW | 218 29.0 37.0 36.0
11/27/22 - 1000 35.4 24.1 15 -7.5 25.7 SW | 225 21.7 32.6 SSW | 210 29.0 36.2 36.0
11/27/22 - 0900 34.1 23.4 14 -10.8 24.6 SW | 235 17.7 27.6 SW | 232 29.0 35.0 36.0
11/27/22 - 0800 33.0 21.0 15 -9.9 23.9 WSW | 242 21.1 36.0 WSW | 244 29.0 34.2 36.0
11/27/22 - 0700 32.7 21.6 15 -9.7 23.7 WSW | 247 17.6 30.2 WSW | 252 29.0 34.0 30.2
11/27/22 - 0600 31.9 20.9 14 -11.4 23.1 WSW | 248 16.7 23.3 WSW | 241 29.0 34.0 23.3
11/27/22 - 0500 33.2 23.0 16 -8.5 24.2 W | 268 15.6 22.2 WNW | 297 29.0 34.0 22.2
11/27/22 - 0400 32.6 25.3 15 -10.4 23.6 WNW | 299 8.5 15.5 NW | 306 29.0 33.3 20.2
11/27/22 - 0300 32.3 23.7 13 -13.3 23.2 WNW | 296 10.9 17.7 NW | 310 29.0 32.9 20.2
11/27/22 - 0200 32.6 23.0 12 -14.9 23.2 WNW | 288 13.1 17.1 WNW | 288 29.0 32.9 20.2
11/27/22 - 0100 30.6 24.4 10 -19.0 21.7 W | 270 6.2 20.2 W | 281 29.0 32.9 20.2
11/27/22 - 0000 30.3 - 7 -27.0 21.1 SSW | 213 1.0 4.1 SSE | 158 23.8 37.4 42.2
11/26/22 - 2300 27.9 - 10 -23.4 19.6 W | 276 1.3 6.0 N | 349 23.8 37.4 42.2
11/26/22 - 2200 26.1 19.8 15 -15.6 18.8 ENE | 74 5.3 12.4 NNE | 17 23.8 37.4 42.2
11/26/22 - 2100 25.2 18.0 39 2.6 20.1 ENE | 57 6.1 13.8 NNE | 20 23.8 37.4 42.2
11/26/22 - 2000 24.6 15.0 72 16.9 22.3 NE | 39 9.4 17.5 NNE | 16 24.1 37.4 42.2
11/26/22 - 1900 25.5 16.0 76 19.0 23.4 NNE | 25 9.4 17.1 NNE | 19 24.8 37.4 42.2
11/26/22 - 1800 27.4 20.0 66 17.5 24.3 E | 81 6.8 14.2 E | 96 26.2 37.4 42.2
11/26/22 - 1700 28.5 - 66 18.6 25.3 ESE | 116 1.2 5.6 N | 10 27.9 37.4 42.2
11/26/22 - 1600 31.9 24.7 58 18.9 27.7 W | 278 8.1 17.4 NE | 46 28.8 37.4 42.2
11/26/22 - 1500 36.1 29.2 46 17.3 29.9 SSW | 197 9.3 19.9 NNW | 340 30.9 37.4 42.2
11/26/22 - 1400 36.9 30.8 40 14.6 29.8 SW | 234 8.0 18.0 WSW | 255 30.9 37.4 42.2
11/26/22 - 1300 36.5 31.7 42 15.3 29.7 WSW | 238 5.8 11.4 WSW | 245 30.9 37.2 42.2
11/26/22 - 1200 33.5 26.2 41 12.3 27.2 SW | 232 8.8 16.6 SW | 220 30.9 35.2 42.2
11/26/22 - 1100 32.3 23.5 36 7.9 25.6 WSW | 249 11.2 20.0 WSW | 251 30.9 35.2 42.2
11/26/22 - 1000 32.0 20.4 26 1.2 24.4 SW | 230 18.7 25.5 SW | 226 30.9 35.2 42.2
11/26/22 - 0900 31.7 18.5 27 1.7 24.3 SW | 222 24.1 28.7 SW | 225 30.9 35.2 42.2
11/26/22 - 0800 31.2 16.6 24 -1.6 23.5 SW | 223 29.7 37.8 SW | 217 30.9 35.2 42.2
11/26/22 - 0700 31.8 17.2 28 2.0 24.4 SW | 222 30.9 36.4 SW | 225 31.4 35.2 42.2
11/26/22 - 0600 32.6 18.6 29 4.0 25.2 SW | 224 29.0 35.2 SW | 221 32.2 35.2 42.2
11/26/22 - 0500 33.3 19.5 27 3.0 25.5 SW | 227 29.4 34.7 SW | 226 33.0 35.2 42.2
11/26/22 - 0400 34.0 20.3 25 1.5 25.7 SW | 222 30.1 35.4 SW | 230 33.5 35.2 42.2
11/26/22 - 0300 34.7 20.5 20 -2.7 25.7 SW | 222 34.4 42.2 SW | 225 34.3 35.2 42.2
11/26/22 - 0200 34.9 21.4 20 -2.4 25.9 SW | 226 30.6 36.6 SW | 222 34.6 35.2 36.6
11/26/22 - 0100 34.8 21.3 22 0.0 26.1 SW | 232 30.2 34.7 SW | 230 34.6 35.2 34.7
11/26/22 - 0000 35.4 21.6 25 2.9 26.8 WSW | 239 33.0 38.2 WSW | 247 35.0 45.6 38.2
11/25/22 - 2300 35.8 23.1 26 3.9 27.2 SW | 235 28.1 37.5 WSW | 237 35.3 45.6 37.5
11/25/22 - 2200 36.2 24.0 28 6.2 27.8 SW | 232 26.9 34.6 SW | 223 36.0 45.6 35.8
11/25/22 - 2100 36.6 24.6 33 10.5 28.8 SW | 236 26.5 32.7 WSW | 243 36.3 45.6 35.8
11/25/22 - 2000 37.0 26.3 34 11.2 29.2 SW | 229 21.2 28.5 SW | 215 36.4 45.6 35.8
11/25/22 - 1900 37.4 26.8 35 12.1 29.6 SW | 235 20.8 28.3 WSW | 244 36.8 45.6 35.8
11/25/22 - 1800 37.9 28.7 33 11.2 29.8 WSW | 237 16.4 29.1 SW | 236 36.8 45.6 35.8
11/25/22 - 1700 38.9 31.7 31 11.0 30.3 WSW | 237 11.3 18.5 WSW | 240 36.8 45.6 35.8
11/25/22 - 1600 43.7 41.9 26 11.4 33.2 SW | 218 3.6 11.4 SW | 232 36.8 45.6 35.8
11/25/22 - 1500 43.3 38.0 26 11.1 32.9 SW | 231 9.5 18.6 SW | 221 36.8 45.0 35.8
11/25/22 - 1400 43.4 37.5 25 9.8 32.7 WSW | 239 10.9 20.8 WSW | 247 36.8 45.0 35.8
11/25/22 - 1300 43.3 37.8 24 9.2 32.6 WSW | 250 9.8 27.6 WSW | 248 36.8 45.0 35.8
11/25/22 - 1200 42.5 35.0 24 7.8 31.9 WSW | 239 15.0 28.3 WSW | 237 36.8 43.4 35.8
11/25/22 - 1100 42.2 36.3 23 6.8 31.6 WSW | 242 10.3 21.4 WSW | 250 36.8 43.4 35.8
11/25/22 - 1000 40.3 30.7 23 5.9 30.3 WSW | 237 20.9 27.4 WSW | 240 36.8 41.3 35.8
11/25/22 - 0900 39.3 28.8 24 5.6 29.6 SW | 233 23.2 28.3 WSW | 254 36.8 40.1 35.8
11/25/22 - 0800 37.3 26.2 26 5.3 28.4 SW | 230 23.3 34.7 SW | 233 36.8 39.8 35.8
11/25/22 - 0700 37.3 26.2 25 4.5 28.3 SW | 236 23.1 35.8 WSW | 245 36.9 39.8 35.8
11/25/22 - 0600 37.8 27.2 24 4.5 28.6 SW | 236 21.5 26.7 WSW | 240 37.0 39.8 26.7
11/25/22 - 0500 37.4 26.3 24 3.8 28.2 SW | 228 23.1 25.2 SSW | 211 37.0 39.8 25.2
11/25/22 - 0400 38.2 28.2 23 3.3 28.6 SW | 230 19.6 24.2 WSW | 238 37.0 39.8 24.2
11/25/22 - 0300 38.7 29.8 22 2.8 28.9 SW | 234 16.0 22.6 SW | 232 37.0 39.8 22.6
11/25/22 - 0200 38.9 32.8 21 2.0 28.9 SW | 225 8.9 13.2 WSW | 251 37.0 39.8 13.2
11/25/22 - 0100 37.6 32.3 22 2.2 28.2 SW | 235 7.0 12.3 WSW | 242 37.0 38.3 12.3
11/25/22 - 0000 36.7 - 24 2.9 27.6 SSW | 206 1.3 4.8 W | 262 27.3 40.7 30.4
Max 43.7 41.9 94 19.7 33.2 - 69.0 87.7 - 37.0 45.6 87.7
Avg 27.9 12.4 42 3.3 22.1 - 29.6 41.2 - - - -
Min 16.9 -6.3 7 -27.0 14.6 - 1.0 4.1 - 15.8 21.7 12.3